User: anonymous
Location: Unspecified
(0.0000°N, 0.0000°E)
Time: 23:04:24
(UTC+02:00)
Language:

DELTA 2 R/B (1) - Orbit

View from above orbital plane
View from above orbital plane
View from above satellite
View from above satellite

Ground track
Ground track

The orbit data is extracted from the following two-line orbital elements,

1 27665U 03005C   14112.50768118  .00000198  00000-0  11266-3 0    65
2 27665 039.5746 213.4890 0009079 340.0148 084.6555 14.28179995586225
Epoch (UTC): 22 April 2014 12:11:03
Eccentricity: 0.0009079
inclination: 39.5746°
perigee height: 791 km
apogee height: 804 km
right ascension of ascending node: 213.4890°
argument of perigee: 340.0148°
revolutions per day: 14.28179995
mean anomaly at epoch: 84.6555°
orbit number at epoch: 58622

The dashed part of the orbit path shows where the satellite is in the earth's shadow,  

DLR